• In Belarus
  • List of Countries
  • For 7 days
  • Water Temperature
  • Weather Map
  • Weather Widgets
  • user-avatar
    Login

    Hourly Weather Rovanemi

    Today, 28 May, Thursday

    Time Temperature Precipitation Wind Pressure Humidity
    00:00 +8°C° 0 mm 1 mps 753 mmHg 81%
    01:00 +7°C° 0 mm 1 mps 753 mmHg 81%
    02:00 +7°C° 0 mm 1 mps 753 mmHg 78%
    03:00 +6°C° 0 mm 2 mps 753 mmHg 76%
    04:00 +7°C° 0 mm 2 mps 753 mmHg 74%
    05:00 +7°C° 0 mm 2 mps 753 mmHg 72%
    06:00 +8°C° 0 mm 2 mps 753 mmHg 66%
    07:00 +9°C° 0 mm 3 mps 754 mmHg 60%
    08:00 +10°C° 0 mm 3 mps 754 mmHg 54%
    09:00 +11°C° 0 mm 3 mps 754 mmHg 48%
    10:00 +12°C° 0 mm 3 mps 754 mmHg 41%
    11:00 +13°C° 0 mm 3 mps 754 mmHg 34%
    12:00 +13°C° 0 mm 3 mps 754 mmHg 33%
    13:00 +14°C° 0 mm 3 mps 754 mmHg 31%
    14:00 +14°C° 0 mm 3 mps 754 mmHg 30%
    15:00 +14°C° 0 mm 3 mps 754 mmHg 30%
    16:00 +14°C° 0 mm 3 mps 754 mmHg 30%
    17:00 +15°C° 0 mm 2 mps 754 mmHg 30%
    18:00 +15°C° 0 mm 2 mps 754 mmHg 34%
    19:00 +14°C° 0 mm 2 mps 754 mmHg 39%
    20:00 +13°C° 0 mm 2 mps 755 mmHg 44%
    21:00 +12°C° 0 mm 2 mps 755 mmHg 51%
    22:00 +10°C° 0 mm 1 mps 755 mmHg 58%
    23:00 +8°C° 0 mm 1 mps 755 mmHg 65%

    Tomorrow, 29 May, Friday

    Time Temperature Precipitation Wind Pressure Humidity
    00:00 +8°C° 0 mm 1 mps 756 mmHg 69%
    01:00 +7°C° 0 mm 1 mps 756 mmHg 73%
    02:00 +6°C° 0 mm 1 mps 756 mmHg 78%
    03:00 +7°C° 0 mm 1 mps 756 mmHg 75%
    04:00 +7°C° 0 mm 0 mps 756 mmHg 72%
    05:00 +7°C° 0 mm 0 mps 756 mmHg 70%
    06:00 +9°C° 0 mm 0 mps 756 mmHg 63%
    07:00 +11°C° 0 mm 1 mps 756 mmHg 56%
    08:00 +12°C° 0 mm 1 mps 756 mmHg 49%
    09:00 +13°C° 0 mm 2 mps 756 mmHg 45%
    10:00 +14°C° 0 mm 2 mps 756 mmHg 41%
    11:00 +14°C° 0 mm 3 mps 756 mmHg 37%
    12:00 +14°C° 0 mm 3 mps 756 mmHg 38%
    13:00 +16°C° 0 mm 3 mps 756 mmHg 39%
    14:00 +15°C° 0 mm 4 mps 756 mmHg 40%
    15:00 +16°C° 0 mm 3 mps 756 mmHg 42%
    16:00 +16°C° 0 mm 3 mps 757 mmHg 45%
    17:00 +16°C° 0 mm 3 mps 757 mmHg 47%
    18:00 +14°C° 0.1 mm 3 mps 757 mmHg 53%
    19:00 +14°C° 0.1 mm 2 mps 757 mmHg 58%
    20:00 +13°C° 0.1 mm 2 mps 758 mmHg 64%
    21:00 +12°C° 0 mm 2 mps 758 mmHg 69%
    22:00 +9°C° 0 mm 2 mps 759 mmHg 74%
    23:00 +8°C° 0 mm 2 mps 759 mmHg 79%

    Day after tomorrow, 30 May, Saturday

    Time Temperature Precipitation Wind Pressure Humidity
    00:00 +7°C° 0 mm 2 mps 760 mmHg 80%
    01:00 +6°C° 0 mm 2 mps 761 mmHg 81%
    02:00 +7°C° 0 mm 1 mps 762 mmHg 81%
    03:00 +6°C° 0 mm 2 mps 762 mmHg 78%
    04:00 +7°C° 0 mm 2 mps 762 mmHg 75%
    05:00 +8°C° 0 mm 2 mps 763 mmHg 72%
    06:00 +9°C° 0 mm 2 mps 763 mmHg 66%
    07:00 +10°C° 0 mm 2 mps 764 mmHg 59%
    08:00 +12°C° 0 mm 2 mps 764 mmHg 53%
    09:00 +13°C° 0 mm 2 mps 764 mmHg 50%
    10:00 +14°C° 0 mm 2 mps 764 mmHg 47%
    11:00 +15°C° 0 mm 2 mps 764 mmHg 44%
    12:00 +16°C° 0 mm 2 mps 764 mmHg 44%
    13:00 +16°C° 0 mm 2 mps 764 mmHg 43%
    14:00 +16°C° 0 mm 2 mps 764 mmHg 43%
    15:00 +17°C° 0 mm 2 mps 764 mmHg 42%
    16:00 +19°C° 0 mm 1 mps 764 mmHg 41%
    17:00 +19°C° 0 mm 1 mps 764 mmHg 41%
    18:00 +18°C° 0 mm 2 mps 763 mmHg 45%
    19:00 +17°C° 0 mm 2 mps 763 mmHg 50%
    20:00 +16°C° 0 mm 2 mps 763 mmHg 54%
    21:00 +14°C° 0 mm 2 mps 763 mmHg 59%
    22:00 +12°C° 0 mm 3 mps 763 mmHg 65%
    23:00 +10°C° 0 mm 3 mps 763 mmHg 70%

    31 May, Sunday

    Time Temperature Precipitation Wind Pressure Humidity
    00:00 +10°C° 0 mm 3 mps 764 mmHg 69%
    01:00 +10°C° 0 mm 3 mps 764 mmHg 68%
    02:00 +10°C° 0 mm 3 mps 764 mmHg 67%
    03:00 +10°C° 0 mm 2 mps 764 mmHg 68%
    04:00 +10°C° 0 mm 2 mps 764 mmHg 69%
    05:00 +11°C° 0 mm 1 mps 764 mmHg 70%
    06:00 +13°C° 0 mm 1 mps 764 mmHg 64%
    07:00 +16°C° 0 mm 1 mps 764 mmHg 58%
    08:00 +19°C° 0 mm 1 mps 764 mmHg 53%
    09:00 +20°C° 0 mm 1 mps 763 mmHg 49%
    10:00 +22°C° 0 mm 1 mps 763 mmHg 46%
    11:00 +23°C° 0 mm 1 mps 763 mmHg 43%
    12:00 +24°C° 0 mm 2 mps 763 mmHg 40%
    13:00 +25°C° 0 mm 2 mps 763 mmHg 38%
    14:00 +26°C° 0 mm 2 mps 762 mmHg 36%
    15:00 +26°C° 0 mm 2 mps 762 mmHg 38%
    16:00 +25°C° 0 mm 2 mps 762 mmHg 40%
    17:00 +25°C° 0 mm 2 mps 761 mmHg 42%
    18:00 +24°C° 0 mm 2 mps 761 mmHg 47%
    19:00 +21°C° 0 mm 2 mps 761 mmHg 51%
    20:00 +20°C° 0 mm 2 mps 761 mmHg 56%
    21:00 +19°C° 0 mm 1 mps 761 mmHg 61%
    22:00 +18°C° 0 mm 1 mps 761 mmHg 66%
    23:00 +15°C° 0 mm 1 mps 761 mmHg 71%

    1 June, Monday

    Time Temperature Precipitation Wind Pressure Humidity
    00:00 +14°C° 0 mm 1 mps 762 mmHg 74%
    01:00 +13°C° 0 mm 1 mps 762 mmHg 77%
    02:00 +13°C° 0 mm 1 mps 762 mmHg 80%
    03:00 +14°C° 0 mm 1 mps 762 mmHg 76%
    04:00 +15°C° 0 mm 1 mps 761 mmHg 73%
    05:00 +15°C° 0 mm 1 mps 761 mmHg 69%
    06:00 +18°C° 0 mm 1 mps 761 mmHg 63%
    07:00 +20°C° 0 mm 1 mps 761 mmHg 58%
    08:00 +20°C° 0 mm 2 mps 761 mmHg 52%
    09:00 +21°C° 0 mm 2 mps 761 mmHg 48%
    10:00 +24°C° 0 mm 2 mps 760 mmHg 44%
    11:00 +25°C° 0 mm 2 mps 760 mmHg 40%
    12:00 +25°C° 0 mm 2 mps 760 mmHg 39%
    13:00 +26°C° 0 mm 2 mps 759 mmHg 38%
    14:00 +27°C° 0 mm 2 mps 759 mmHg 37%
    15:00 +27°C° 0 mm 2 mps 758 mmHg 38%
    16:00 +26°C° 0 mm 2 mps 758 mmHg 39%
    17:00 +26°C° 0 mm 2 mps 757 mmHg 39%
    18:00 +25°C° 0 mm 2 mps 757 mmHg 44%
    19:00 +24°C° 0 mm 2 mps 757 mmHg 50%
    20:00 +23°C° 0 mm 2 mps 757 mmHg 55%
    21:00 +19°C° 0 mm 2 mps 757 mmHg 62%
    22:00 +17°C° 0 mm 2 mps 756 mmHg 69%
    23:00 +15°C° 0 mm 2 mps 756 mmHg 76%

    2 June, Tuesday

    Time Temperature Precipitation Wind Pressure Humidity
    00:00 +14°C° 0 mm 2 mps 756 mmHg 75%
    01:00 +14°C° 0 mm 2 mps 756 mmHg 74%
    02:00 +13°C° 0 mm 2 mps 756 mmHg 73%
    03:00 +13°C° 0 mm 2 mps 755 mmHg 71%
    04:00 +13°C° 0 mm 2 mps 755 mmHg 68%
    05:00 +13°C° 0 mm 2 mps 755 mmHg 65%
    06:00 +14°C° 0 mm 2 mps 755 mmHg 63%
    07:00 +15°C° 0 mm 2 mps 754 mmHg 61%
    08:00 +16°C° 0 mm 2 mps 754 mmHg 59%
    09:00 +17°C° 0 mm 3 mps 754 mmHg 55%
    10:00 +19°C° 0 mm 3 mps 754 mmHg 51%
    11:00 +21°C° 0 mm 3 mps 754 mmHg 47%
    12:00 +22°C° 0 mm 3 mps 753 mmHg 46%
    13:00 +24°C° 0 mm 3 mps 753 mmHg 44%
    14:00 +24°C° 0 mm 3 mps 752 mmHg 43%
    15:00 +24°C° 0 mm 3 mps 752 mmHg 43%
    16:00 +24°C° 0 mm 3 mps 751 mmHg 43%
    17:00 +24°C° 0 mm 3 mps 751 mmHg 43%
    18:00 +22°C° 0 mm 3 mps 751 mmHg 49%
    19:00 +20°C° 0 mm 2 mps 750 mmHg 54%
    20:00 +19°C° 0 mm 2 mps 750 mmHg 59%
    21:00 +17°C° 0.1 mm 2 mps 750 mmHg 66%
    22:00 +15°C° 0.1 mm 1 mps 750 mmHg 73%
    23:00 +14°C° 0.1 mm 1 mps 750 mmHg 80%
    Show more